Sandpoint, ID

2:28 AM PDT on April 28, 2017 (GMT -0700)
Sandpoint

Weather History for KSZT - November, 2012

Change the Weather History Date:

Sunday, November 25, 2012

  Actual Average Record
Temperature  
Mean Temperature 34 °F -  
Max Temperature 41 °F 36 °F 55 °F (1914)
Min Temperature 28 °F 26 °F 0 °F (1993)
Degree Days  
Heating Degree Days 30    
Moisture  
Dew Point 31 °F    
Average Humidity 93    
Maximum Humidity 100    
Minimum Humidity 65    
Precipitation  
Precipitation 0.00 in - - ()
Sea Level Pressure  
Sea Level Pressure 30.20 in    
Wind  
Wind Speed 2 mph (SSW)    
Max Wind Speed 10 mph    
Max Gust Speed -    
Visibility 10 miles    
Events      
Averages and records for this station are not official NWS values.
T = Trace of Precipitation, MM = Missing Value Source: NWS Daily Summary

Daily Weather History Graph

Daily Weather History Graph

Search for Another Location

Airport or City:

Trip Planner

Search our weather history database for the weather conditions in past years. The results will help you decide how hot, cold, wet, or windy it might be!

Date:

Astronomy

Nov. 25, 2012 Rise Set
Actual Time 7:09 AM PST 3:57 PM PST
Civil Twilight 6:33 AM PST 4:32 PM PST
Nautical Twilight 5:54 AM PST 5:11 PM PST
Astronomical Twilight 5:17 AM PST 5:48 PM PST
Moon 2:24 PM PST (11/25) 4:18 AM PST (11/25)
Length of Visible Light 9h 59m
Length of Day
8h 48m
Waxing Gibbous, 93% of the Moon is Illuminated
Nov 25
Waxing Gibbous
Nov 28
Full
Dec 6
Last Quarter
Dec 13
New
Dec 19
First Quarter

Hourly Weather History & Observations

Time (PST) Temp. Windchill Dew Point Humidity Pressure Visibility Wind Dir Wind Speed Gust Speed Precip Events Conditions
12:15 AM 32.0 °F - 32.0 °F 100% 30.08 in 7.0 mi Calm Calm - N/A   Overcast
12:35 AM 32.0 °F - 32.0 °F 100% 30.08 in 7.0 mi Calm Calm - N/A   Overcast
1:15 AM 32.0 °F - 32.0 °F 100% 30.08 in 10.0 mi Calm Calm - N/A   Overcast
1:35 AM 32.0 °F - 32.0 °F 100% 30.08 in 7.0 mi Calm Calm - N/A   Overcast
1:55 AM 32.0 °F 27.5 °F 32.0 °F 100% 30.09 in 10.0 mi SW 4.6 mph - N/A   Overcast
2:15 AM 32.0 °F 26.4 °F 32.0 °F 100% 30.09 in 7.0 mi SW 5.8 mph - N/A   Overcast
2:35 AM 32.0 °F 27.5 °F 32.0 °F 100% 30.10 in 10.0 mi WSW 4.6 mph - N/A   Mostly Cloudy
2:55 AM 32.0 °F 28.7 °F 32.0 °F 100% 30.09 in 10.0 mi WSW 3.5 mph - N/A   Overcast
3:15 AM 32.0 °F - 32.0 °F 100% 30.09 in 10.0 mi Calm Calm - N/A   Mostly Cloudy
3:35 AM 32.0 °F - 32.0 °F 100% 30.10 in 10.0 mi Calm Calm - N/A   Mostly Cloudy
3:55 AM 32.0 °F - 32.0 °F 100% 30.10 in 10.0 mi Calm Calm - N/A   Overcast
4:15 AM 32.0 °F 28.7 °F 32.0 °F 100% 30.10 in 10.0 mi WSW 3.5 mph - N/A   Overcast
4:35 AM 32.0 °F 27.5 °F 32.0 °F 100% 30.10 in 10.0 mi SW 4.6 mph - N/A   Overcast
4:55 AM 32.0 °F 28.7 °F 32.0 °F 100% 30.10 in 10.0 mi WSW 3.5 mph - N/A   Mostly Cloudy
5:15 AM 32.0 °F - 32.0 °F 100% 30.11 in 10.0 mi Calm Calm - N/A   Mostly Cloudy
5:35 AM 32.0 °F - 32.0 °F 100% 30.12 in 10.0 mi Calm Calm - N/A   Mostly Cloudy
5:55 AM 32.0 °F - 32.0 °F 100% 30.12 in 10.0 mi Calm Calm - N/A   Overcast
6:15 AM 32.0 °F - 32.0 °F 100% 30.13 in 10.0 mi Calm Calm - N/A   Overcast
6:35 AM 32.0 °F 27.5 °F 32.0 °F 100% 30.13 in 10.0 mi SW 4.6 mph - N/A   Scattered Clouds
6:55 AM 32.0 °F 26.4 °F 32.0 °F 100% 30.14 in 10.0 mi SW 5.8 mph - N/A   Clear
7:15 AM 32.0 °F 27.5 °F 32.0 °F 100% 30.14 in 10.0 mi SSW 4.6 mph - N/A   Clear
7:35 AM 32.0 °F - 32.0 °F 100% 30.16 in 10.0 mi Calm Calm - N/A   Scattered Clouds
7:55 AM 32.0 °F - 32.0 °F 100% 30.16 in 10.0 mi Calm Calm - N/A   Overcast
8:15 AM 32.0 °F 27.5 °F 32.0 °F 100% 30.16 in 10.0 mi SSW 4.6 mph - N/A   Mostly Cloudy
8:35 AM 32.0 °F 28.7 °F 32.0 °F 100% 30.17 in 10.0 mi SSW 3.5 mph - N/A   Scattered Clouds
8:55 AM 33.8 °F 30.8 °F 32.0 °F 93% 30.17 in 10.0 mi South 3.5 mph - N/A   Scattered Clouds
9:15 AM 33.8 °F 30.8 °F 32.0 °F 93% 30.18 in 10.0 mi South 3.5 mph - N/A   Mostly Cloudy
9:55 AM 35.6 °F 32.8 °F 32.0 °F 87% 30.19 in 10.0 mi South 3.5 mph - N/A   Overcast
10:15 AM 35.6 °F - 32.0 °F 87% 30.20 in 10.0 mi Calm Calm - N/A   Overcast
10:35 AM 35.6 °F - 32.0 °F 87% 30.20 in 10.0 mi Calm Calm - N/A   Overcast
10:55 AM 35.6 °F - 32.0 °F 87% 30.20 in 10.0 mi Calm Calm - N/A   Overcast
11:15 AM 35.6 °F - 32.0 °F 87% 30.20 in 10.0 mi Calm Calm - N/A   Overcast
11:35 AM 35.6 °F 32.8 °F 32.0 °F 87% 30.20 in 10.0 mi SSW 3.5 mph - N/A   Overcast
11:55 AM 35.6 °F 31.7 °F 32.0 °F 87% 30.21 in 10.0 mi SSW 4.6 mph - N/A   Overcast
12:15 PM 37.4 °F 32.8 °F 32.0 °F 81% 30.21 in 10.0 mi South 5.8 mph - N/A   Overcast
12:35 PM 37.4 °F 32.8 °F 32.0 °F 81% 30.21 in 10.0 mi South 5.8 mph - N/A   Overcast
12:55 PM 39.2 °F 35.0 °F 32.0 °F 75% 30.21 in 10.0 mi SSW 5.8 mph - N/A   Overcast
1:15 PM 41.0 °F 34.7 °F 30.2 °F 65% 30.21 in 10.0 mi South 10.4 mph - N/A   Overcast
1:35 PM 41.0 °F 36.4 °F 30.2 °F 65% 30.21 in 10.0 mi South 6.9 mph - N/A   Overcast
1:55 PM 37.4 °F 34.9 °F 30.2 °F 75% 30.21 in 10.0 mi South 3.5 mph - N/A   Overcast
2:15 PM 37.4 °F 32.8 °F 30.2 °F 75% 30.22 in 10.0 mi South 5.8 mph - N/A   Overcast
2:35 PM 37.4 °F - 30.2 °F 75% 30.22 in 10.0 mi Calm Calm - N/A   Overcast
2:55 PM 37.4 °F 33.8 °F 30.2 °F 75% 30.23 in 10.0 mi SSW 4.6 mph - N/A   Mostly Cloudy
3:15 PM 37.4 °F 32.8 °F 30.2 °F 75% 30.24 in 10.0 mi South 5.8 mph - N/A   Mostly Cloudy
3:35 PM 37.4 °F 34.9 °F 30.2 °F 75% 30.24 in 10.0 mi SSW 3.5 mph - N/A   Mostly Cloudy
3:55 PM 35.6 °F 31.7 °F 30.2 °F 81% 30.24 in 10.0 mi SSW 4.6 mph - N/A   Scattered Clouds
4:15 PM 35.6 °F - 30.2 °F 81% 30.24 in 10.0 mi Calm Calm - N/A   Mostly Cloudy
4:35 PM 35.6 °F 32.8 °F 30.2 °F 81% 30.25 in 10.0 mi WSW 3.5 mph - N/A   Overcast
4:55 PM 33.8 °F 29.6 °F 32.0 °F 93% 30.26 in 10.0 mi West 4.6 mph - N/A   Overcast
5:15 PM 33.8 °F - 30.2 °F 87% 30.25 in 10.0 mi Calm Calm - N/A   Scattered Clouds
5:35 PM 32.0 °F 28.7 °F 30.2 °F 93% 30.26 in 10.0 mi South 3.5 mph - N/A   Clear
6:15 PM 30.2 °F - 30.2 °F 100% 30.28 in 10.0 mi Calm Calm - N/A   Clear
6:35 PM 30.2 °F - 30.2 °F 100% 30.28 in 10.0 mi Calm Calm - N/A   Clear
6:55 PM 30.2 °F 26.7 °F 30.2 °F 100% 30.28 in 10.0 mi WSW 3.5 mph - N/A   Clear
7:15 PM 30.2 °F 25.4 °F 30.2 °F 100% 30.29 in 10.0 mi SSW 4.6 mph - N/A   Clear
7:35 PM 30.2 °F 26.7 °F 30.2 °F 100% 30.29 in 10.0 mi SSW 3.5 mph - N/A   Clear
7:55 PM 28.4 °F - 28.4 °F 100% 30.30 in 10.0 mi Calm Calm - N/A   Clear
8:15 PM 28.4 °F - 28.4 °F 100% 30.30 in 10.0 mi Calm Calm - N/A   Clear
8:35 PM 28.4 °F 24.6 °F 28.4 °F 100% 30.30 in 10.0 mi WNW 3.5 mph - N/A   Scattered Clouds
8:55 PM 28.4 °F - 28.4 °F 100% 30.30 in 10.0 mi Calm Calm - N/A   Mostly Cloudy
9:15 PM 28.4 °F - 28.4 °F 100% 30.30 in 10.0 mi Calm Calm - N/A   Overcast
9:35 PM 28.4 °F - 28.4 °F 100% 30.31 in 10.0 mi Calm Calm - N/A   Overcast
9:55 PM 30.2 °F - 30.2 °F 100% 30.31 in 10.0 mi Calm Calm - N/A   Overcast
10:15 PM 30.2 °F - 30.2 °F 100% 30.31 in 10.0 mi Calm Calm - N/A   Overcast
10:35 PM 28.4 °F - 28.4 °F 100% 30.31 in 10.0 mi Calm Calm - N/A   Overcast
10:55 PM 28.4 °F - 28.4 °F 100% 30.32 in 10.0 mi Calm Calm - N/A   Mostly Cloudy
11:15 PM 28.4 °F - 28.4 °F 100% 30.33 in 10.0 mi Calm Calm - N/A   Overcast
11:35 PM 28.4 °F - 28.4 °F 100% 30.33 in 10.0 mi Calm Calm - N/A   Overcast
11:55 PM 30.2 °F - 30.2 °F 100% 30.33 in 10.0 mi Calm Calm - N/A   Overcast